Regional Weather Roundup
Issued by NWS

Home | Current Version | Previous Version | Graphics & Text | Print | Product List | Glossary On
Versions: 1 2 3 4 5 6 7 8 9 10 11 12 13 14 15 16 17 18 19 20 21 22 23 24 25 26 27 28 29 30 31 32 33 34 35 36 37 38 39 40 41 42 43 44 45 46 47 48
000
ASUS45 KCYS 250210
RWRWY

WYOMING REGIONAL WEATHER ROUNDUP
NATIONAL WEATHER SERVICE CHEYENNE WY
700 PM MST WED DEC 24 2014

NOTE:  "FAIR" INDICATES FEW OR NO CLOUDS BELOW 12,000 FEET
WITH NO SIGNIFICANT WEATHER AND/OR OBSTRUCTIONS TO VISIBILITY.

WYZ001-250300-
YELLOWSTONE NATIONAL PARK

CITY           SKY/WX    TMP DP  RH WIND       PRES   REMARKS
LK YELLOWSTONE   N/A     22  19  89 CALM      29.49F
W YELLOWSTONE  NOT AVBL

$$
WYZ002>013-054>058-071-098>099-250300-
NORTHERN WYOMING

CITY           SKY/WX    TMP DP  RH WIND       PRES   REMARKS
JACKSON        LGT SNOW  28  28 100 S14       29.50  VSB 1   WCI  17
CODY           MOCLDY    37  27  65 SW20      29.40F WCI  27
GREYBULL       CLOUDY    27  20  75 SE3       29.44F
WORLAND        CLOUDY    21  16  81 S7        29.44F WCI  12
SHERIDAN       CLOUDY    33  27  78 VRB5      29.41S WCI  29
BUFFALO        CLOUDY    34  23  64 N5        29.40F WCI  30
GILLETTE       FAIR      38  25  59 SW17      29.39F WCI  28
HULETT           N/A    N/A N/A N/A MISG        N/A
NEWCASTLE      FAIR      34  23  64 E7        29.47F WCI  28

$$
WYZ014>020-022>026-101>103-250300-
CENTRAL WYOMING

CITY           SKY/WX    TMP DP  RH WIND       PRES   REMARKS
BIG PINEY      CLOUDY    22  18  85 N5        29.57F WCI  16
PINEDALE       LGT SNOW  25  25 100 SE5       29.58F WCI  19
DUBOIS         NOT AVBL
LANDER         FAIR      23  16  74 E5        29.44F WCI  17
RIVERTON       FAIR      23  15  71 NE5       29.46F WCI  17
CASPER         FAIR      35  19  52 SW35G46   29.48F WCI  21
DOUGLAS        FAIR      42  21  43 W9        29.47S

$$
WYZ021-027>030-104>119-250300-
SOUTHERN WYOMING

CITY           SKY/WX    TMP DP  RH WIND       PRES   REMARKS
EVANSTON       CLOUDY    36  24  62 SW16      29.59F WCI  26
KEMMERER       FAIR      28  23  80 CALM      29.58F
FORT BRIDGER   FAIR      36  26  67 W5        29.61F WCI  32
ROCK SPRINGS   MOCLDY    28  18  66 SE12      29.59F WCI  18
DIXON          MOCLDY    26  16  68 W6        29.73S WCI  19
RAWLINS        FAIR      29  15  56 S7G22     29.62F WCI  22
SARATOGA       MOCLDY    30  19  64 S10       29.63F WCI  21
LARAMIE        FAIR      29  16  58 SW28G35   29.56F WCI  14
CHEYENNE       FAIR      41  17  38 W17       29.55S
TORRINGTON     FAIR      43  21  41 W10       29.50F
PINE BLUFFS    FAIR      30  19  64 S3        29.56F

$$


USA.gov is the U.S. government's official web portal to all federal, state and local government web resources and services.